Location: Aydie
(43.5695°N, 0.1043°W)
Time: 05:04:06
(UTC+00:00)

Cosmos 1428 Rocket - Pass Details

Date: 17 November 2025
Orbit: 947 x 986 km, 82.9° (Epoch: 04 December)

Event Time Altitude Azimuth Distance (km) Brightness Sun altitude
Rises 18:32:25 0° 352° (N) 3,682 7.5 -21.4°
Reaches altitude 10° 18:34:55 10° 353° (N) 2,736 6.9 -21.9°
Maximum altitude 18:41:13 86° 83° (E) 991 4.4 -23.0°
Drops below altitude 10° 18:47:31 10° 172° (S) 2,734 6.8 -24.2°
Sets 18:50:02 0° 173° (S) 3,680 7.5 -24.6°
